Regional Weather Roundup
Issued by NWS

Home | Current Version | Previous Version | Text Only | Print | Product List | Glossary On
Versions: 1 2 3 4 5 6 7 8 9 10 11 12 13 14 15 16 17 18 19 20 21 22 23 24 25 26 27 28 29 30 31 32 33 34 35 36 37 38 39 40 41 42 43 44 45 46 47 48 49 50
000
ASUS43 KMKX 220811
RWRWI

WISCONSIN REGIONAL WEATHER ROUNDUP
NATIONAL WEATHER SERVICE MILWAUKEE/SULLIVAN WI
300 AM CDT SAT JUL 22 2017

NOTE: "FAIR" INDICATES FEW OR NO CLOUDS BELOW 12,000 FEET WITH NO
SIGNIFICANT WEATHER AND/OR OBSTRUCTIONS TO VISIBILITY.

WIZ001-002-006>008-014>016-023>028-220900-
NORTHWEST WISCONSIN

CITY           SKY/WX    TMP DP  RH WIND       PRES   REMARKS
SUPERIOR ARPT  NOT AVBL
ASHLAND        CLOUDY    61  61 100 CALM      29.82R FOG
HAYWARD        CLOUDY    66  64  93 CALM      29.82R
SIREN          CLOUDY    64  63  97 CALM      29.80S
CUMBERLAND     MOCLDY    61  61 100 CALM      29.81R
RICE LAKE      MOCLDY    64  62  94 CALM      29.83R
CHETEK         MOCLDY    64  64  99 CALM      29.80S
LADYSMITH      CLOUDY    66  65  96 CALM      29.81S
EAU CLAIRE     CLOUDY    68  66  93 CALM      29.77S
MENOMONIE      CLOUDY    68  65  91 N7        29.80R
NEW RICHMOND   CLOUDY    67  62  84 NE7       29.81R
OSCEOLA        MOCLDY    66  66 100 CALM      29.81F
$$

WIZ003>005-009-010-017-018-220900-
NORTH CENTRAL WISCONSIN

CITY           SKY/WX    TMP DP  RH WIND       PRES   REMARKS
MANITOWISH WTR CLOUDY    66  66 100 CALM      29.82R
ARBOR VITAE    CLOUDY    67  65  94 SE6       29.81S
WOODRUFF       CLOUDY    67  65  94 SE6       29.81S
RHINELANDER    CLOUDY    64  63  96 E5        29.83F
EAGLE RIVER    CLOUDY    66  60  80 SE5       29.82F
LAND O LAKES   CLOUDY    65  63  93 CALM      29.83F
PHILLIPS       CLOUDY    66  66 100 S5        29.81R
TOMAHAWK         N/A     64  63  94 CALM      29.82S
MEDFORD        CLOUDY    64  63  98 S6        29.80F
MERRILL        CLOUDY    65  63  90 CALM      29.81R
$$

WIZ029-030-035-036-043>047-220900-
CENTRAL WISCONSIN

CITY           SKY/WX    TMP DP  RH WIND       PRES   REMARKS
WAUSAU         CLOUDY    66  64  93 S7        29.82R
MOSINEE        CLOUDY    64  64 100 SE5       29.83R
MARSHFIELD     CLOUDY    66  64  93 S6        29.79F FOG
STEVENS POINT  CLOUDY    65  65 100 S5        29.81F
WAUPACA        CLOUDY    67  65  93 S5        29.81F
WAUTOMA        CLOUDY    65  64  97 CALM      29.82F
WISC RAPIDS    CLOUDY    68  67  96 S6        29.82S
CAMP DOUGLAS   CLOUDY    68  68 100 SE9       29.80F
$$

WIZ011>013-019>022-031-037>040-048>050-220900-
NORTHEAST WISCONSIN

CITY           SKY/WX    TMP DP  RH WIND       PRES   REMARKS
ANTIGO         CLOUDY    62  59  92 CALM      29.84R
SHAWANO        CLOUDY    70  63  77 CALM      29.81F
OCONTO         CLOUDY    69  60  72 S9        29.81F
STURGEON BAY     N/A     66  63  90 S10       29.81F
GREEN BAY      CLOUDY    67  61  81 S6        29.82F
MANITOWOC      CLOUDY    68  61  78 SE8       29.85F
APPLETON       CLOUDY    66  55  68 SE9       29.81F
CLINTONVILLE   CLOUDY    68  61  77 S5        29.81F
OSHKOSH        CLOUDY    67  62  84 SE5       29.82F
$$

WIZ032>034-041-042-053>061-220900-
SOUTHWEST WISCONSIN

CITY           SKY/WX    TMP DP  RH WIND       PRES   REMARKS
LA CROSSE      CLOUDY    73  70  90 S8        29.80F
SPARTA         CLOUDY    66  66  98 SE6       29.80F
VIROQUA        CLOUDY    69  69 100 CALM      29.84R
BOSCOBEL       CLOUDY    71  69  93 CALM      29.82R
PRAIRIE DU CHI CLOUDY    71  70  96 E7        29.77F
PLATTEVILLE    CLOUDY    70  70 100 SE5       29.81F
$$

WIZ056-057-062-063-064-067-068-220900-
SOUTH CENTRAL WISCONSIN

CITY           SKY/WX    TMP DP  RH WIND       PRES   REMARKS
REEDSBURG      CLOUDY    66  66 100 CALM      29.82F
BARABOO/DELLS  CLOUDY    65  64  95 CALM      29.82F FOG
LONE ROCK      CLOUDY    70  67  90 E6        29.80F
MINERAL POINT  LGT RAIN  72  72 100 CALM      29.83F
MADISON        CLOUDY    67  64  90 SE8       29.80F
MIDDLETON      CLOUDY    68  68 100 SE5       29.81F
WATERTOWN      CLOUDY    65  65 100 E3        29.81S
MONROE         RAIN      68  68 100 SW8       29.84R
JANESVILLE     LGT RAIN  70  70 100 W6        29.82S
$$

WIZ051-052-058>065-066-070>072-220900-
SOUTHEAST WISCONSIN

CITY           SKY/WX    TMP DP  RH WIND       PRES   REMARKS
MILWAUKEE      LGT RAIN  69  67  93 CALM      29.81F
WAUKESHA       CLOUDY    63  61  94 CALM      29.83F
MILWAUKEE/TIMM CLOUDY    64  59  82 N6        29.83S
RACINE         CLOUDY    71  71 100 CALM      29.82F FOG
KENOSHA        LGT RAIN  73  71  93 S6        29.79F
FOND DU LAC    CLOUDY    65  60  84 SE5       29.84R
SHEBOYGAN      CLOUDY    64  62  93 CALM      29.84F
WEST BEND      CLOUDY    61  61 100 NE3       29.83F
JUNEAU         CLOUDY    64  63  94 NE7       29.84R
$$

LSZ147-162-220900-
LAKE SUPERIOR

STATION/POSITION TIME  TEMP    WIND        PRES    WAVE
                       AIR SEA DIR/SP/G            HT/PER
                 (UTC) (F)     (DEG/KT/KT) (MB)    (FT/S)
W MID LAKE BUOY  0750   51 48   40/  8/ 10 1008.8F   1/ 3
DEVILS ISLAND    0800   58      90/ 12/ 13 1009.0R
SAXON HARBOR     0730   64      30/  6/ 11 1008.8R
$$

LMZ867-665-643>646-220900-
LAKE MICHIGAN

STATION/POSITION TIME  TEMP    WIND        PRES    WAVE
                       AIR SEA DIR/SP/G            HT/PER
                 (UTC) (F)     (DEG/KT/KT) (MB)    (FT/S)
CHAMBERS ISLAND  0740   72     170/  7/ 18 1009.5F
S GREEN BAY BUOY 0800   71 73  170/ 16/ 19 1009.5
N MID LAKE BUOY  0750   69 67  200/ 12/ 14 1010.5F   1/ 3
NORTHPORT PIER   0740   70     160/  4/  7 1009.8F
KEWAUNEE LAKESHO 0742   67     200/  3/  4 1009.9F
SHEBOYGAN LAKESH 0800   67      60/  3/  3 1009.9F
PORT WASHINGTON  0730   67      30/  4/  6 1011.2F
ATWATER BUOY     0709   67 67   70/  4/  6 1009.8F
MILWAUKEE LAKESH 0750   68      20/  4/  4   N/A
S MID LAKE BUOY  0750   72 70  150/ 12/ 16 1009.3F   2/ 4
KENOSHA   LAKESH 0800   71     170/  4/  6 1008.5
$$

TC  - TEMPERATURE IN CELSIUS
VSB - VISIBILITY IN STATUTE MILES
WCI - WIND CHILL INDEX
HX  - HEAT INDEX





USA.gov is the U.S. government's official web portal to all federal, state and local government web resources and services.